Terminal Aerodrome Forecast
Issued by NWS La Crosse, WI

Home | Current Version | Previous Version | Text Only | Print | Product List | Glossary On
Versions: 1 2 3 4 5 6 7 8 9 10 11 12 13 14 15 16 17 18 19 20 21 22 23 24 25 26 27 28 29 30 31 32 33 34 35 36 37 38 39 40 41 42 43 44 45 46 47 48 49 50
000
FTUS43 KARX 071120
TAFRST
TAF
KRST 071120Z 0712/0812 26017G26KT P6SM -SHSN OVC016
     FM071500 27017G26KT P6SM -SHSN BKN020
     FM080000 28017G25KT P6SM BKN025=

USA.gov is the U.S. government's official web portal to all federal, state and local government web resources and services.